Regional Weather Roundup
Issued by NWS Boston, MA

Current Version | Previous Version | Text Only | Print | Product List | Glossary Off
Versions: 1 2 3 4 5 6 7 8 9 10 11 12 13 14 15 16 17 18 19 20 21 22 23 24 25 26 27 28

000
ASUS41 KBOX 251010
RWRBOX

REGIONAL WEATHER ROUNDUP
NATIONAL WEATHER SERVICE TAUNTON MA
600 AM EDT SAT MAR 25 2017

NOTE:  "FAIR" INDICATES FEW OR NO CLOUDS BELOW 12,000 FEET WITH NO
SIGNIFICANT WEATHER AND/OR OBSTRUCTIONS TO VISIBILITY.

MAZALL-251100-
EASTERN MASSACHUSETTS

CITY           SKY/WX    TMP DP  RH WIND       PRES   REMARKS
BOSTON         CLOUDY    41  34  76 N3        30.10R
BEVERLY        CLOUDY    38  36  92 N6        30.10R
LAWRENCE       LGT RAIN  37  36  96 CALM      30.12R FOG
BEDFORD        LGT RAIN  39  33  79 CALM      30.09R
BLUE HILL        N/A     41  32  70 N10       30.07R
NORWOOD        CLOUDY    39  33  79 CALM      30.10R
MARSHFIELD     CLOUDY    43  34  70 N6        30.10R
PLYMOUTH       CLOUDY    38  33  82 CALM      30.09R
TAUNTON        CLOUDY    37  33  85 CALM      30.08R
NEW BEDFORD    MOCLDY    39  35  86 S3        30.08R
$$

MAZALL-251100-
CAPE COD AND THE ISLANDS

CITY           SKY/WX    TMP DP  RH WIND       PRES   REMARKS
FALMOUTH       CLOUDY    39  36  87 MISG      30.10S
HYANNIS        CLOUDY    41  37  86 W6        30.08R
CHATHAM        CLOUDY    43  38  82 CALM      30.10R
PROVINCETOWN   LGT RAIN  40  36  86 N5        30.10R
NANTUCKET      CLOUDY    43  40  89 W13       30.10R
MARTHAS VNYRD  MOCLDY    45  40  82 W6        30.10R
$$

MAZALL-251100-
CENTRAL AND WESTERN MASSACHUSETTS

CITY           SKY/WX    TMP DP  RH WIND       PRES   REMARKS
WORCESTER      CLOUDY    42  32  67 CALM      30.08R
FITCHBURG      CLOUDY    39  35  86 W5        30.11R
ORANGE         LGT RAIN  35  34  96 CALM      30.10R
SPRINGFIELD    DRIZZLE   36  32  87 CALM      30.09R
WESTFIELD      LGT RAIN  34  32  92 CALM      30.08R
NORTH ADAMS    CLOUDY    37  37 100 W6        30.11R FOG
PITTSFIELD     CLOUDY    40  37  89 VRB3      30.08R
$$

RIZALL-251100-
RHODE ISLAND

CITY           SKY/WX    TMP DP  RH WIND       PRES   REMARKS
PROVIDENCE     CLOUDY    41  34  76 SW3       30.10R
NEWPORT        CLOUDY    43  37  79 CALM      30.09R
BLOCK ISLAND   CLOUDY    42  40  92 W9        30.10R
SMITHFIELD     CLOUDY    41  33  73 W3        30.09R
WESTERLY       CLOUDY    39  36  89 CALM      30.10R
$$

CTZALL-251100-
CONNECTICUT

CITY           SKY/WX    TMP DP  RH WIND       PRES   REMARKS
BRADLEY INTL   LGT RAIN  38  32  79 S6        30.10R
HARTFORD       CLOUDY    38  33  82 CALM      30.11R
BRIDGEPORT     CLOUDY    39  33  79 CALM      30.10R
DANBURY        CLOUDY    35  32  88 CALM      30.11R
GROTON         MOCLDY    38  35  89 NE3       30.09R
NEW HAVEN      MOCLDY    39  34  82 N3        30.10R
CHESTER        NOT AVBL
MERIDEN        CLOUDY    38  33  82 CALM      30.11R
WILLIMANTIC    PTCLDY    36  32  85 CALM      30.11R
OXFORD         MOCLDY    39  30  70 N3        30.10R
$$

MEZ002-015-021-024-NHZ003-005-008-011-012-014-VTZ005-008-251100-
NORTHERN NEW ENGLAND

CITY           SKY/WX    TMP DP  RH WIND       PRES   REMARKS
PORTLAND ME    CLOUDY    34  31  88 NW6       30.12R WCI  29
BANGOR ME      MOCLDY    29  26  89 NW7       30.11R WCI  22
CONCORD NH     CLOUDY    35  32  88 CALM      30.11R FOG
MANCHESTER NH  NOT AVBL
NASHUA NH      CLOUDY    35  35 100 CALM      30.12R FOG
PORTSMOUTH NH  CLOUDY    35  34  95 CALM      30.10R FOG
JAFFREY NH     CLOUDY    36  35  96 CALM      30.08R
KEENE NH       NOT AVBL
BURLINGTON VT  CLOUDY    33  31  92 N6        30.19R WCI  28
MT. WASHINGTON MOCLDY    21  19  93 NW40        N/A  WCI   1
$$

NYZ052-076-251100-
EASTERN NEW YORK

CITY           SKY/WX    TMP DP  RH WIND       PRES   REMARKS
ALBANY         LGT RAIN  38  35  89 N5        30.15R FOG
NEW YORK CITY  CLOUDY    54  37  52 S7        30.08R
$$

ANZALL-251100-
MARINE OBSERVATIONS

STATION/POSITION TIME  TEMP    WIND        PRES    VSBY  WAVE
                       AIR SEA DIR/SP/G                  HT/PER
                 (UTC) (F)     (DEG/KT/KT) (MB)    (MI)  (FT/S)
BOSTON BUOY      0850   40 40   20/ 12/ 14 1017.9          1/10
BUZZARDS BAY     0900   42     270/ 11/ 12 1019.0R
NANTUCKET SOUND  0950      39              1019.0R         1/ 3
MASS BAY-STELLWA 0904   39 39  340/ 10/ 12 1018.4R         1/ 6
ISLE OF SHOALS   0900   37      10/  7/  7 1018.9R
S OF BLOCK IS    0955      40                N/A           6/ 8
$$

......................KEY.........................
  SKY/WX - SKY CONDITION/PRESENT WEATHER
  TMP    - TEMPERATURE IN FAHRENHEIT
  DWPT   - DEWPOINT IN FAHRENHEIT
  RH     - RELATIVE HUMIDITY IN PERCENT
  WIND   - DIRECTION AND SPEED IN MPH
  PRES   - MEAN SEA LEVEL PRESSURE IN INCHES OF HG
  WCI    - WIND CHILL INDEX
  VSB    - VISIBILITY IN MILES
  HX     - HEAT INDEX
  TC     - TEMPERATURE IN CELSIUS
  VRB    - VARIABLE WIND DIRECTION
  N/A    - NOT AVAILABLE




USA.gov is the U.S. government's official web portal to all federal, state and local government web resources and services.